EW3719 Weather Reports


Display with metric or nautical units.
time (UTC)temp
F
wind
direction
speed
MPH
gust
MPH
rain 1hr
in
rain 24hr
in
rain mn
in
humidity
%
barometer
mb
20260831120025 60 72 0.0 1.0 0.00 0.08 0.01 100 1019.9
20260831114516 59 112 0.0 2.0 0.00 0.09 0.01 100 1019.8
20260831113016 59 78 0.0 3.0 0.00 0.09 0.01 99 1019.8
20260831111523 59 79 0.0 0.0 0.00 0.09 0.01 99 1019.6
20260831110012 59 120 0.0 0.0 0.00 0.09 0.01 99 1019.2
20260831104516 59 120 0.0 0.0 0.00 0.10 0.01 99 1019.2
20260831103022 59 103 0.0 0.0 0.00 0.10 0.01 99 1019.0
20260831101510 59 103 0.0 0.0 0.00 0.10 0.01 100 1019.0
20260831100011 59 145 0.0 0.0 0.00 0.10 0.01 100 1019.1
20260831094520 58 207 0.0 0.0 0.00 0.10 0.01 100 1019.1
20260831093008 58 155 0.0 0.0 0.00 0.10 0.01 99 1018.9
20260831091507 57 157 0.0 0.0 0.00 0.10 0.01 99 1018.8
20260831090006 57 139 0.0 0.0 0.00 0.10 0.01 99 1018.8
20260831084504 58 137 0.0 0.0 0.01 0.10 0.01 99 1018.9
20260831083003 59 137 0.0 0.0 0.01 0.10 0.01 99 1018.7
20260831081601 59 137 0.0 0.0 0.01 0.10 0.01 99 1018.8
20260831080106 60 191 0.0 0.0 0.01 0.10 0.01 99 1019.0
20260831074555 61 191 0.0 0.0 0.00 0.09 0.00 99 1018.9
20260831073054 61 191 0.0 0.0 0.00 0.09 0.00 99 1019.0
20260831071552 61 201 0.0 0.0 0.00 0.09 0.00 99 1019.0
20260831070052 61 208 0.0 0.0 0.00 0.09 0.00 99 1018.9
20260831064551 61 208 0.0 0.0 0.00 0.09 0.00 99 1018.9
20260831063051 61 204 0.0 0.0 0.00 0.09 0.00 99 1019.0
20260831061550 61 166 0.0 0.0 0.00 0.09 0.00 98 1019.0
20260831060048 61 166 0.0 0.0 0.00 0.09 0.00 99 1019.1
20260831054548 61 141 0.0 0.0 0.00 0.09 0.00 98 1019.2
20260831053046 61 141 0.0 0.0 0.00 0.09 0.00 98 1019.3
20260831051545 62 141 0.0 0.0 0.00 0.09 0.00 98 1019.3
20260831050041 63 141 0.0 0.0 0.00 0.09 0.00 98 1019.2
20260831044540 63 141 0.0 0.0 0.00 0.09 0.00 98 1019.1
20260831043039 63 141 0.0 0.0 0.00 0.09 0.00 97 1019.2
20260831041549 63 229 0.0 0.0 0.00 0.09 0.00 97 1019.3
20260831040036 63 210 0.0 0.0 0.00 0.09 0.00 98 1019.2
20260831034535 63 211 0.0 0.0 0.00 0.09 0.09 97 1019.3
20260831033034 63 209 0.0 0.0 0.00 0.09 0.09 97 1019.2
20260831031541 63 220 0.0 0.0 0.00 0.09 0.09 97 1019.1
20260831030030 63 217 0.0 0.0 0.00 0.09 0.09 97 1018.9
20260831024529 64 163 0.0 0.0 0.00 0.09 0.09 97 1018.8
20260831023027 64 220 1.0 4.0 0.00 0.09 0.09 97 1018.7
20260831021527 64 239 2.0 4.0 0.00 0.09 0.09 96 1018.6
20260831020026 64 243 0.0 0.0 0.00 0.09 0.09 96 1018.6
20260831014526 64 223 0.0 3.0 0.00 0.09 0.09 96 1018.5
20260831013026 64 198 0.0 2.0 0.00 0.09 0.09 95 1018.6
20260831011526 65 210 2.0 4.0 0.00 0.09 0.09 96 1018.3
20260831010032 65 204 0.0 5.0 0.00 0.09 0.09 96 1018.3
20260831004626 65 206 0.0 2.0 0.00 0.09 0.09 96 1018.4
20260831003024 65 209 0.0 1.0 0.00 0.09 0.09 95 1018.2
20260831001523 65 210 1.0 3.0 0.00 0.09 0.09 95 1017.8
20260831000026 66 224 0.0 1.0 0.00 0.09 0.09 94 1017.6
20260830234537 66 225 1.0 5.0 0.00 0.09 0.09 93 1017.3
20260830233022 66 233 3.0 6.0 0.00 0.09 0.09 93 1017.3
20260830231520 66 205 3.0 6.0 0.00 0.09 0.09 93 1017.5
20260830230025 67 199 2.0 5.0 0.00 0.09 0.09 93 1017.4
20260830224519 67 259 3.0 8.0 0.00 0.09 0.09 92 1017.5
20260830223019 67 243 4.0 8.0 0.00 0.09 0.09 92 1017.4
20260830221526 67 257 6.0 11.0 0.00 0.09 0.09 92 1017.6
20260830220017 67 250 3.0 9.0 0.00 0.09 0.09 91 1017.3
20260830214516 68 251 8.0 15.0 0.00 0.09 0.09 88 1017.3
20260830213021 69 261 6.0 11.0 0.00 0.09 0.09 86 1017.2
20260830211516 69 233 4.0 11.0 0.00 0.09 0.09 87 1017.2
20260830210014 69 215 7.0 12.0 0.00 0.09 0.09 85 1017.3
20260830204526 70 231 6.0 12.0 0.00 0.09 0.09 84 1017.2
20260830203014 70 244 7.0 13.0 0.00 0.09 0.09 81 1017.0
20260830201513 70 227 7.0 12.0 0.00 0.09 0.09 84 1017.1
20260830200012 69 216 4.0 8.0 0.00 0.09 0.09 84 1017.0
20260830194511 68 233 8.0 11.0 0.00 0.09 0.09 82 1017.1
20260830193009 68 250 5.0 8.0 0.00 0.09 0.09 85 1017.3
20260830191507 68 259 5.0 9.0 0.01 0.09 0.09 86 1017.5
20260830190006 67 288 2.0 5.0 0.01 0.09 0.09 89 1017.9
20260830184515 67 245 0.0 0.0 0.01 0.09 0.09 90 1018.0
20260830183004 67 300 0.0 3.0 0.01 0.09 0.09 89 1018.1
20260830181503 67 302 1.0 4.0 0.00 0.08 0.08 88 1018.2
20260830180002 68 255 1.0 5.0 0.00 0.08 0.08 86 1018.1
20260830174502 68 279 2.0 6.0 0.00 0.08 0.08 87 1018.2
20260830173001 68 289 1.0 6.0 0.00 0.08 0.08 87 1018.2
20260830171501 69 302 2.0 7.0 0.00 0.08 0.08 87 1018.2
20260830170106 69 300 1.0 4.0 0.00 0.08 0.08 88 1018.0
20260830164610 69 280 1.0 7.0 0.00 0.08 0.08 87 1018.4
20260830163113 70 274 3.0 8.0 0.00 0.08 0.08 85 1018.3
20260830161606 70 295 3.0 7.0 0.00 0.08 0.08 87 1018.4
20260830160054 69 295 3.0 6.0 0.00 0.08 0.08 89 1018.3
20260830154559 69 281 1.0 4.0 0.00 0.08 0.08 91 1018.4
20260830153104 68 290 0.0 4.0 0.00 0.08 0.08 94 1018.4
20260830151552 68 268 2.0 5.0 0.00 0.08 0.08 97 1018.4
20260830150056 67 263 3.0 4.0 0.00 0.08 0.08 98 1018.5
20260830144548 67 210 0.0 0.0 0.00 0.08 0.08 99 1018.4
20260830143048 66 205 0.0 2.0 0.00 0.08 0.08 99 1018.4
20260830141547 65 180 0.0 4.0 0.01 0.08 0.08 99 1018.6
20260830140046 65 228 2.0 6.0 0.01 0.08 0.08 99 1018.6
20260830134546 65 195 1.0 6.0 0.02 0.08 0.08 99 1018.6
20260830133045 65 214 0.0 0.0 0.04 0.08 0.08 99 1018.2
20260830131546 65 160 2.0 5.0 0.05 0.07 0.07 99 1018.4
20260830130044 64 211 1.0 3.0 0.05 0.07 0.07 99 1018.2
20260830124542 64 206 0.0 3.0 0.05 0.06 0.06 98 1018.3
20260830123043 64 141 2.0 6.0 0.03 0.04 0.04 99 1018.5
20260830121539 64 227 2.0 5.0 0.01 0.02 0.02 98 1018.3